Regional Weather Roundup
Issued by NWS

Home | Current Version | Previous Version | Graphics & Text | Print | Product List | Glossary On
Versions: 1 2 3 4 5 6 7 8 9 10 11 12 13 14 15 16 17 18 19 20 21 22 23 24 25 26 27 28 29 30 31 32 33 34 35 36 37 38 39 40 41 42 43 44 45 46 47 48 49 50
000
ASUS45 KSLC 131210
RWRUT

UTAH REGIONAL WEATHER ROUNDUP
NATIONAL WEATHER SERVICE SALT LAKE CITY UT
600 AM MDT SUN JUL 13 2014

UTZ001>011-023>025-131300-

NORTHERN UTAH

CITY           SKY/WX    TMP DP  RH WIND       PRES   REMARKS
HILL AFB       CLEAR     71  52  50 E16       30.22R
LOGAN          NOT AVBL
OGDEN          NOT AVBL
PROVO AIRPORT  NOT AVBL
SALT LAKE CITY CLEAR     72  52  49 CALM      30.16R
VERNAL         NOT AVBL
WENDOVER       NOT AVBL
HEBER CITY     CLEAR     57  52  82 CALM      30.34R
WEST JORDAN    CLEAR     73  55  53 W5        30.21R

$$

UTZ012>022-026-027-131300-

SOUTHERN UTAH

CITY           SKY/WX    TMP DP  RH WIND       PRES   REMARKS
CEDAR CITY     NOT AVBL
MILFORD        NOT AVBL
MOAB/CYNLANDS  NOT AVBL
PRICE          NOT AVBL
ST GEORGE      NOT AVBL

$$

REGIONAL REPORTS     COLORADO/ARIZONA

CITY           SKY/WX    TMP DP  RH WIND       PRES   REMARKS
CRAIG, CO      CLEAR     48  32  53 SW3       30.36R
GRAND JUNCTION   N/A     70  51  51 SE12      30.22R
RIFLE          PTCLDY    62  54  74 CALM      30.30R
MONTROSE       PTCLDY    68  51  54 E22G29    30.32R
CORTEZ         CLEAR     60  50  69 SE7       30.30R
PAGE, AZ       CLEAR     78  52  40 CALM      30.13R
GRAND CANYON   PTCLDY    55  49  80 CALM      30.33R
KINGMAN        CLEAR     72  53  51 SE6       30.04
FLAGSTAFF      PTCLDY    56  51  84 CALM      30.35R

$$

REGIONAL REPORTS    NEVADA/IDAHO/WYOMING

CITY           SKY/WX    TMP DP  RH WIND       PRES   REMARKS
LAS VEGAS, NV  PTCLDY    86  39  19 SW8       29.89R
ELY            NOT AVBL
ELKO           CLEAR     57  47  69 CALM      30.25R
POCATELLO, ID  NOT AVBL
EVANSTON, WY   NOT AVBL
ROCK SPRINGS   NOT AVBL

$$



USA.gov is the U.S. government's official web portal to all federal, state and local government web resources and services.